Regional Weather Roundup
Issued by NWS

Home | Current Version | Previous Version | Text Only | Print | Product List | Glossary Off
Versions: 1 2 3 4 5 6 7 8 9 10 11 12 13 14 15 16 17 18 19 20 21 22 23 24 25 26 27 28 29 30 31 32 33 34 35 36 37 38 39 40 41 42 43 44 45 46 47 48 49 50

000
ASUS45 KTFX 201704
RWRMT
MONTANA HOURLY WEATHER ROUNDUP
NATIONAL WEATHER SERVICE GREAT FALLS MT
1004 AM MST THU NOV 20 2014

NOTE: "FAIR" INDICATES FEW OR NO CLOUDS BELOW 12000 FEET WITH NO
SIGNIFICANT WEATHER AND/OR OBSTRUCTIONS TO VISIBILITY.

* THESE STATIONS ARE NOT UNDER NWS QUALITY CONTROL. THEY DO NOT
   REPORT WEATHER SUCH AS PRECIPITATION OR FOG.

MTZ001>007-043-201800-
WEST OF THE DIVIDE
CITY           SKY/WX    TMP DP  RH WIND       PRES   REMARKS
KALISPELL      FOG       23  21  92 CALM      30.06S VSB 1/2
MISSOULA       CLOUDY    25  21  85 CALM      30.07S
BUTTE          PTSUNNY   28  19  69 CALM      29.98S
MULLAN PASS    CLOUDY    28  19  69 W3        29.96S
* ESSEX        N/A       18  14  84 N/A        N/A
* LINCOLN      N/A       26  17  69 NW2        N/A
* POLSON       N/A       22  21  96 SE1        N/A
* SEELEY LAKE  N/A       18  15  88 S1         N/A
* THOMP F APT  PTSUNNY   30  15  54 NE2        N/A
* YAAK HILL    N/A       25  21  85 N/A        N/A
$$

MTZ008-052>055-201800-
SOUTHWEST MONTANA
CITY           SKY/WX    TMP DP  RH WIND       PRES   REMARKS
BOZEMAN        SUNNY     23  19  85 CALM      29.98S
DILLON         PTSUNNY   34  19  54 S9        29.99S WCI  27
* W YELLOWSTON PTCLDY    21  15  78 N/A        N/A
* ENNIS APT    SUNNY     34  19  54 S14        N/A   WCI  24
* THREE FORKS  PTCLDY    21  21 100 N/A        N/A
* BOULDER HILL N/A       34  14  44 SW10       N/A   WCI  26
* MONIDA PASS  N/A       26  17  69 SE15       N/A   WCI  14
* RAYNOLDS PAS N/A       25   9  50 S17G22     N/A   WCI  12
* WHITEHALL    N/A       35  23  62 SW4        N/A
* WISE RIVER   N/A       26  18  72 E1         N/A
$$

MTZ009>010-012-014-046-048-049-054-201800-
EAST SLOPES AND CENTRAL MONTANA
CITY           SKY/WX    TMP DP  RH WIND       PRES   REMARKS
CUT BANK       PTSUNNY   28  25  89 S3        29.79S
GREAT FALLS    PTCLDY    39  21  48 SW14      29.82S WCI  31
HELENA         PTSUNNY   25  18  75 CALM      29.97S
MALMSTROM AFB  PTCLDY    32  27  82 SW13      29.84S WCI  22
* DEARBORN     N/A       47  17  30 S13G19     N/A
* EAST GLACIER N/A       41  15  35 W26G48     N/A
* MONARCH      N/A       37   9  31 S9         N/A   WCI  30
* PENDROY      N/A       44  15  31 NE3        N/A
* ROGERS PASS  N/A       33  14  45 SE15G26    N/A   WCI  23
* SAINT MARY   N/A       42   9  26 S12G32     N/A
* SWEET GRASS  N/A       23  23 100 SW9        N/A   WCI  13
$$

MTZ011-013-016-021-035-040-045-047-050-051-201800-
NORTH CENTRAL MONTANA
CITY           SKY/WX    TMP DP  RH WIND       PRES   REMARKS
HAVRE          FOG       21  19  92 CALM      29.87S VSB 1 1/4
LEWISTOWN      PTCLDY    34  21  59 E5        29.84S WCI  29
* N BAR RANCH  SUNNY     37  25  62 CALM      29.84S
* MALTA APT    CLOUDY    21  16  81 N/A        N/A
* CHESTER      N/A       19  17  92 SW1        N/A
* DENTON       N/A       33  25  72 S6         N/A   WCI  27
* GEYSER       N/A       42  15  33 W3         N/A
* JUDITH GAP   N/A       45  20  37 SW2        N/A
* LOMA         N/A       14  12  92 N/A        N/A
$$

MTZ017>020-022>027-061-062-201800-
NORTHEAST MONTANA
CITY           SKY/WX    TMP DP  RH WIND       PRES   REMARKS
GLASGOW        CLOUDY    21  18  88 SE14      29.90F WCI   8
GLENDIVE       CLOUDY    18  18 100 S7        29.96F VSB M1/4 WCI   9
JORDAN         SUNNY     16  10  77 CALM      29.89F
SIDNEY         CLOUDY    18  12  77 SE6       30.02F WCI  10
WOLF POINT     CLOUDY    21  18  88 SE5       29.97S WCI  14
* BEAVER HILL  N/A       16  14  92 SE6        N/A   WCI   7
* CIRCLE       N/A       19  17  92 SE3        N/A
* LINDSAY DVD  N/A       16  14  92 SE6        N/A   WCI   7
* SACO         N/A       21  18  88 SE5        N/A   WCI  14
$$

MTZ028>042-056>058-201800-
SOUTHCENTRAL AND SOUTHEAST MONTANA
CITY           SKY/WX    TMP DP  RH WIND       PRES   REMARKS
BAKER          PTCLDY    19  14  81 SE9       29.95F WCI   8
BILLINGS       PTCLDY    32  19  59 SW17      29.89S WCI  21
LIVINGSTON     PTSUNNY   43  19  38 SW29G43   29.91S
MILES CITY     PTCLDY    18  14  84 SE7       29.94S WCI   9
* LAUREL APT   PTCLDY    30  16  56 SW5        N/A   WCI  25
* ALZADA       N/A       20  19  96 N/A        N/A
* HYSHAM       N/A       34  16  48 W8         N/A   WCI  27
* LAME DEER    N/A       41  20  43 S4         N/A
* REED POINT   N/A       25  19  78 E2         N/A
* ROSCOE HILL  N/A       38  13  36 SE2        N/A
$$

REGIONAL REPORTS...DAKOTAS
CITY           SKY/WX    TMP DP  RH WIND       PRES   REMARKS
WILLISTON      PTCLDY    16   7  67 S9        30.02F WCI   5
DICKINSON      PTSUNNY   12   7  80 S12       29.98F WCI  -2
BEACH          FOG       18  18 100 S9        29.97R VSB 1    WCI   7
CROSBY         CLOUDY    16   9  74 S10       30.00F WCI   4
BISMARCK       PTCLDY    19   9  65 SW6       30.11S WCI  11
GRAND FORKS    PTCLDY    12   3  67 N7        30.16R WCI   1
FARGO          PTCLDY    18   7  62 NW8       30.17R WCI   8
BUFFALO SD     PTCLDY    18  16  92 S10       29.90F WCI   6
RAPID CITY     FOG       19  16  88 SE6       29.99S WCI  11
$$

REGIONAL REPORTS...WYOMING/IDAHO/WASHINGTON
CITY           SKY/WX    TMP DP  RH WIND       PRES   REMARKS
GILLETTE       SUNNY     28  19  69 CALM      29.92F
SHERIDAN       SUNNY     28  19  69 CALM      29.91S
CODY           PTCLDY    21  12  68 N5        29.93S WCI  14
YELLOWSTONE LA PTSUNNY   28  19  69 CALM      30.10R
SALMON         PTSUNNY   21  16  81 CALM      30.12S
MULLAN PASS    CLOUDY    28  19  69 W3        29.96S
SAND POINT     CLOUDY    28  27  96 CALM      30.08S
SPOKANE        LGT SNOW  27  25  92 S6        30.05S VSB 1 1/4 WCI  20

$$




USA.gov is the U.S. government's official web portal to all federal, state and local government web resources and services.